,,,PA_Meas_PMT16A,,PR_Meas_QMR101_102,,RH_Meas_QMH101,,SR_Meas_QMS101,,TA_Meas_QMH101,,GenWind,,GenWind,
date,time,status,PA,status,PR,status,RH,status,SR,status,TA,status,DirAvg,status,SpdAvg,
2011-11-05, 00:00:04,VALID,1002.79,VALID,0,VALID,93.0418,VALID,0,VALID,24.8697,VALID,5,VALID,0.658203,
2011-11-05, 00:01:04,VALID,1002.75,VALID,0,VALID,93.2783,VALID,0,VALID,24.9671,VALID,6,VALID,0.903125,
2011-11-05, 00:02:04,VALID,1002.73,VALID,0,VALID,92.7214,VALID,0,VALID,25.0644,VALID,1,VALID,0.771484,
2011-11-05, 00:03:04,VALID,1002.71,VALID,0,VALID,92.073,VALID,0,VALID,25.1794,VALID,41,VALID,0.873047,
2011-11-05, 00:04:04,VALID,1002.69,VALID,0,VALID,91.1499,VALID,0,VALID,25.3546,VALID,12,VALID,0.666797,
2011-11-05, 00:05:04,VALID,1002.71,VALID,0,VALID,90.3488,VALID,0,VALID,25.4928,VALID,16,VALID,0.439453,
2011-11-05, 00:06:04,VALID,1002.7,VALID,0,VALID,89.8606,VALID,0.0815089,VALID,25.5707,VALID,20,VALID,0.808594,
2011-11-05, 00:07:04,VALID,1002.71,VALID,0,VALID,89.4715,VALID,0.0815089,VALID,25.6292,VALID,4,VALID,0.910937,
2011-11-05, 00:08:04,VALID,1002.68,VALID,0,VALID,89.1282,VALID,0.0815089,VALID,25.709,VALID,33,VALID,0.810547,
2011-11-05, 00:09:04,VALID,1002.73,VALID,0,VALID,88.7391,VALID,0,VALID,25.785,VALID,13,VALID,0.567187,
2011-11-05, 00:10:04,VALID,1002.73,VALID,0,VALID,88.4874,VALID,0,VALID,25.8239,VALID,11,VALID,0.646484,
2011-11-05, 00:11:04,VALID,1002.71,VALID,0,VALID,88.3043,VALID,0,VALID,25.8239,VALID,18,VALID,0.623047,
2011-11-05, 00:12:04,VALID,1002.69,VALID,0,VALID,88.1975,VALID,0,VALID,25.8629,VALID,17,VALID,0.875391,
2011-11-05, 00:13:04,VALID,1002.69,VALID,0,VALID,87.9915,VALID,0,VALID,25.8823,VALID,352,VALID,1.0793,
2011-11-05, 00:14:04,VALID,1002.69,VALID,0,VALID,87.7245,VALID,0,VALID,25.9408,VALID,10,VALID,1.16719,
2011-11-05, 00:15:04,VALID,1002.67,VALID,0,VALID,87.427,VALID,0,VALID,25.9797,VALID,5,VALID,1.14453,
2011-11-05, 00:16:04,VALID,1002.63,VALID,0,VALID,87.2744,VALID,0,VALID,26.0187,VALID,357,VALID,0.666406,
2011-11-05, 00:17:04,VALID,1002.62,VALID,0,VALID,87.0455,VALID,0,VALID,26.0381,VALID,349,VALID,1.06602,
2011-11-05, 00:18:04,VALID,1002.62,VALID,0,VALID,87.0608,VALID,0,VALID,26.0576,VALID,25,VALID,0.790234,
2011-11-05, 00:19:04,VALID,1002.62,VALID,0,VALID,87.1218,VALID,0,VALID,26.0771,VALID,8,VALID,0.507813,
2011-11-05, 00:20:04,VALID,1002.56,VALID,0,VALID,87.1142,VALID,0,VALID,26.0381,VALID,354,VALID,1.16367,
2011-11-05, 00:21:04,VALID,1002.56,VALID,0,VALID,87.2744,VALID,0,VALID,26.0187,VALID,22,VALID,0.865625,
2011-11-05, 00:22:04,VALID,1002.56,VALID,0,VALID,87.3278,VALID,0,VALID,25.9972,VALID,23,VALID,0.577734,
2011-11-05, 00:23:04,VALID,1002.53,VALID,0,VALID,87.3354,VALID,0.0815089,VALID,26.0167,VALID,1,VALID,0.261719,
2011-11-05, 00:24:04,VALID,1002.51,VALID,0,VALID,87.4346,VALID,0,VALID,25.9992,VALID,1,VALID,0.223828,
2011-11-05, 00:25:04,VALID,1002.5,VALID,0,VALID,87.5109,VALID,0,VALID,25.9797,VALID,1,VALID,0.363672,
2011-11-05, 00:26:04,VALID,1002.48,VALID,0,VALID,87.6558,VALID,0,VALID,25.9408,VALID,7,VALID,0.342187,
2011-11-05, 00:27:04,VALID,1002.49,VALID,0,VALID,87.6101,VALID,0,VALID,25.8998,VALID,7,VALID,0.0566406,
2011-11-05, 00:28:04,VALID,1002.48,VALID,0,VALID,87.6863,VALID,0,VALID,25.9427,VALID,7,VALID,0.171484,
2011-11-05, 00:29:04,VALID,1002.48,VALID,0,VALID,87.7245,VALID,0,VALID,25.9018,VALID,24,VALID,0.333594,
2011-11-05, 00:30:04,VALID,1002.47,VALID,0,VALID,87.8466,VALID,0.0815089,VALID,25.9232,VALID,22,VALID,0.435156,
2011-11-05, 00:31:04,VALID,1002.45,VALID,0,VALID,87.8847,VALID,0,VALID,25.8823,VALID,356,VALID,0.785156,
2011-11-05, 00:32:04,VALID,1002.48,VALID,0,VALID,87.9534,VALID,0,VALID,25.9038,VALID,1,VALID,0.715234,
2011-11-05, 00:33:04,VALID,1002.47,VALID,0,VALID,87.9534,VALID,0,VALID,25.8629,VALID,331,VALID,0.945313,
2011-11-05, 00:34:04,VALID,1002.49,VALID,0,VALID,87.8313,VALID,0,VALID,25.8823,VALID,32,VALID,1.2543,
2011-11-05, 00:35:04,VALID,1002.47,VALID,0,VALID,87.7932,VALID,0,VALID,25.9018,VALID,1,VALID,0.719141,
2011-11-05, 00:36:04,VALID,1002.49,VALID,0,VALID,87.8694,VALID,0,VALID,25.8823,VALID,360,VALID,0.555469,
2011-11-05, 00:37:04,VALID,1002.49,VALID,0,VALID,87.8542,VALID,0,VALID,25.8629,VALID,19,VALID,1.12852,
2011-11-05, 00:38:04,VALID,1002.46,VALID,0,VALID,87.9305,VALID,0,VALID,25.9018,VALID,29,VALID,0.698828,
2011-11-05, 00:39:04,VALID,1002.42,VALID,0,VALID,88.0449,VALID,0,VALID,25.8648,VALID,17,VALID,0.730859,
2011-11-05, 00:40:04,VALID,1002.42,VALID,0,VALID,88.2661,VALID,0,VALID,25.8044,VALID,16,VALID,0.0976563,
2011-11-05, 00:41:04,VALID,1002.38,VALID,0,VALID,88.495,VALID,0,VALID,25.7655,VALID,16,VALID,0.385938,
2011-11-05, 00:42:04,VALID,1002.38,VALID,0,VALID,88.6705,VALID,0,VALID,25.7265,VALID,16,VALID,0.529297,
2011-11-05, 00:43:04,VALID,1002.32,VALID,0,VALID,88.7544,VALID,0,VALID,25.7265,VALID,16,VALID,0.402344,
2011-11-05, 00:44:04,VALID,1002.32,VALID,0,VALID,88.7391,VALID,0,VALID,25.7071,VALID,14,VALID,0.977734,
2011-11-05, 00:45:04,VALID,1002.35,VALID,0,VALID,88.556,VALID,0,VALID,25.7655,VALID,17,VALID,0.719141,
2011-11-05, 00:46:04,VALID,1002.32,VALID,0,VALID,88.3272,VALID,0,VALID,25.785,VALID,9,VALID,0.835938,
2011-11-05, 00:47:04,VALID,1002.3,VALID,0,VALID,88.3424,VALID,0,VALID,25.8044,VALID,23,VALID,0.741016,
2011-11-05, 00:48:04,VALID,1002.29,VALID,0,VALID,88.2356,VALID,0,VALID,25.783,VALID,23,VALID,0.681641,
2011-11-05, 00:49:04,VALID,1002.26,VALID,0,VALID,88.2356,VALID,0,VALID,25.8259,VALID,1,VALID,0.928125,
2011-11-05, 00:50:04,VALID,1002.24,VALID,0,VALID,88.0831,VALID,0,VALID,25.8044,VALID,2,VALID,0.583594,
2011-11-05, 00:51:04,VALID,1002.22,VALID,0,VALID,88.3272,VALID,0,VALID,25.785,VALID,2,VALID,0.185156,
2011-11-05, 00:52:04,VALID,1002.17,VALID,0,VALID,88.5026,VALID,0,VALID,25.746,VALID,2,VALID,0.665625,
2011-11-05, 00:53:04,VALID,1002.21,VALID,0,VALID,88.6934,VALID,0,VALID,25.748,VALID,5,VALID,0.603906,
2011-11-05, 00:54:04,VALID,1002.17,VALID,0,VALID,88.8154,VALID,0,VALID,25.6876,VALID,5,VALID,0.70625,
2011-11-05, 00:55:04,VALID,1002.16,VALID,0,VALID,88.8078,VALID,0,VALID,25.7265,VALID,33,VALID,1.02031,
2011-11-05, 00:56:04,VALID,1002.15,VALID,0,VALID,88.5408,VALID,0,VALID,25.7655,VALID,17,VALID,0.45625,
2011-11-05, 00:57:04,VALID,1002.13,VALID,0,VALID,88.4264,VALID,0,VALID,25.785,VALID,48,VALID,0.428906,
2011-11-05, 00:58:04,VALID,1002.1,VALID,0,VALID,88.5179,VALID,0.0815089,VALID,25.7655,VALID,14,VALID,0.390625,
2011-11-05, 00:59:04,VALID,1002.1,VALID,0,VALID,88.5408,VALID,0,VALID,25.7265,VALID,14,VALID,0.161719,
2011-11-05, 01:00:04,VALID,1002.1,VALID,0,VALID,88.6628,VALID,0.0815089,VALID,25.7071,VALID,8,VALID,0.558594,
2011-11-05, 01:01:04,VALID,1002.1,VALID,0,VALID,88.6552,VALID,0,VALID,25.7285,VALID,9,VALID,0.548828,
2011-11-05, 01:02:04,VALID,1002.1,VALID,0,VALID,88.6934,VALID,0,VALID,25.709,VALID,9,VALID,0.169922,
2011-11-05, 01:03:04,VALID,1002.07,VALID,0,VALID,88.7315,VALID,0,VALID,25.6876,VALID,9,VALID,0.151953,
2011-11-05, 01:04:04,VALID,1002.1,VALID,0,VALID,88.7468,VALID,0.0815089,VALID,25.6876,VALID,9,VALID,0,
2011-11-05, 01:05:04,VALID,1002.11,VALID,0,VALID,88.8002,VALID,0,VALID,25.6681,VALID,9,VALID,0.015625,
2011-11-05, 01:06:04,VALID,1002.1,VALID,0,VALID,88.8383,VALID,0,VALID,25.6895,VALID,9,VALID,0,
2011-11-05, 01:07:04,VALID,1002.08,VALID,0,VALID,88.8383,VALID,0,VALID,25.6681,VALID,9,VALID,0.149219,
2011-11-05, 01:08:04,VALID,1002.07,VALID,0,VALID,88.8612,VALID,0,VALID,25.67,VALID,9,VALID,0.335156,
2011-11-05, 01:09:04,VALID,1002.07,VALID,0,VALID,88.8688,VALID,0,VALID,25.6895,VALID,28,VALID,0.394531,
2011-11-05, 01:10:04,VALID,1002.06,VALID,0,VALID,88.7544,VALID,0.0815089,VALID,25.6895,VALID,36,VALID,0.50625,
2011-11-05, 01:11:04,VALID,1002.08,VALID,0,VALID,88.7468,VALID,0,VALID,25.7285,VALID,43,VALID,0.310156,
2011-11-05, 01:12:04,VALID,1002.06,VALID,0,VALID,88.6552,VALID,0,VALID,25.6876,VALID,43,VALID,0.14375,
2011-11-05, 01:13:04,VALID,1002.02,VALID,0,VALID,88.701,VALID,0,VALID,25.6876,VALID,43,VALID,0.173047,
2011-11-05, 01:14:04,VALID,1002.02,VALID,0,VALID,88.7544,VALID,0,VALID,25.6895,VALID,43,VALID,0,
2011-11-05, 01:15:04,VALID,1001.99,VALID,0,VALID,88.8536,VALID,0,VALID,25.6486,VALID,43,VALID,0.316406,
2011-11-05, 01:16:04,VALID,1002,VALID,0,VALID,88.9756,VALID,0,VALID,25.6311,VALID,43,VALID,0.314453,
2011-11-05, 01:17:04,VALID,1001.97,VALID,0,VALID,89.0367,VALID,0,VALID,25.6116,VALID,42,VALID,0.0132813,
2011-11-05, 01:18:04,VALID,1001.97,VALID,0,VALID,89.1816,VALID,0,VALID,25.5707,VALID,42,VALID,0.125781,
2011-11-05, 01:19:04,VALID,1001.97,VALID,0,VALID,89.1892,VALID,0,VALID,25.5513,VALID,42,VALID,0.0824219,
2011-11-05, 01:20:04,VALID,1001.97,VALID,0,VALID,89.3266,VALID,0,VALID,25.5318,VALID,42,VALID,0,
2011-11-05, 01:21:04,VALID,1001.99,VALID,0,VALID,89.3952,VALID,0,VALID,25.4928,VALID,42,VALID,0,
2011-11-05, 01:22:04,VALID,1001.99,VALID,0,VALID,89.4028,VALID,0,VALID,25.4948,VALID,42,VALID,0,
2011-11-05, 01:23:04,VALID,1001.98,VALID,0,VALID,89.6165,VALID,0,VALID,25.4753,VALID,42,VALID,0,
2011-11-05, 01:24:04,VALID,1001.96,VALID,0,VALID,89.7614,VALID,0,VALID,25.4344,VALID,42,VALID,0,
2011-11-05, 01:25:04,VALID,1001.95,VALID,0,VALID,90.0437,VALID,0,VALID,25.4363,VALID,37,VALID,0.367969,
2011-11-05, 01:26:04,VALID,1001.97,VALID,0,VALID,90.0666,VALID,0,VALID,25.4363,VALID,37,VALID,0.123828,
2011-11-05, 01:27:04,VALID,1001.94,VALID,0,VALID,90.1429,VALID,0,VALID,25.4149,VALID,37,VALID,0.375391,
2011-11-05, 01:28:04,VALID,1001.94,VALID,0,VALID,90.1047,VALID,0,VALID,25.4149,VALID,29,VALID,0.402344,
2011-11-05, 01:29:04,VALID,1001.91,VALID,0,VALID,90.1886,VALID,0,VALID,25.4363,VALID,29,VALID,0.502734,
2011-11-05, 01:30:04,VALID,1001.87,VALID,0,VALID,90.0894,VALID,0,VALID,25.4169,VALID,29,VALID,0.01875,
2011-11-05, 01:31:04,VALID,1001.87,VALID,0,VALID,90.0589,VALID,0,VALID,25.376,VALID,29,VALID,0,
2011-11-05, 01:32:04,VALID,1001.86,VALID,0,VALID,90.2802,VALID,0,VALID,25.3584,VALID,29,VALID,0.457812,
2011-11-05, 01:33:04,VALID,1001.86,VALID,0,VALID,90.4022,VALID,0,VALID,25.2981,VALID,29,VALID,0.262109,
2011-11-05, 01:34:04,VALID,1001.84,VALID,0,VALID,90.7455,VALID,0,VALID,25.3195,VALID,11,VALID,0.848828,
2011-11-05, 01:35:04,VALID,1001.86,VALID,0,VALID,90.5472,VALID,0,VALID,25.3584,VALID,21,VALID,0.590234,
2011-11-05, 01:36:04,VALID,1001.88,VALID,0,VALID,90.181,VALID,0,VALID,25.4169,VALID,21,VALID,0.144141,
2011-11-05, 01:37:04,VALID,1001.84,VALID,0,VALID,90.242,VALID,0,VALID,25.3955,VALID,26,VALID,0.824609,
2011-11-05, 01:38:04,VALID,1001.87,VALID,0,VALID,90.0513,VALID,0,VALID,25.4363,VALID,26,VALID,0.228125,
2011-11-05, 01:39:04,VALID,1001.86,VALID,0,VALID,89.9903,VALID,0,VALID,25.4344,VALID,26,VALID,0.285156,
2011-11-05, 01:40:04,VALID,1001.87,VALID,0,VALID,90.0132,VALID,0,VALID,25.4363,VALID,21,VALID,0.496094,
2011-11-05, 01:41:04,VALID,1001.82,VALID,0,VALID,89.9445,VALID,0,VALID,25.4539,VALID,22,VALID,0.379297,
2011-11-05, 01:42:04,VALID,1001.83,VALID,0,VALID,89.9064,VALID,0.0815089,VALID,25.4734,VALID,97,VALID,0.505469,
2011-11-05, 01:43:04,VALID,1001.82,VALID,0,VALID,89.7156,VALID,0,VALID,25.5142,VALID,97,VALID,0.203906,
2011-11-05, 01:44:04,VALID,1001.81,VALID,0,VALID,89.769,VALID,0,VALID,25.4948,VALID,28,VALID,0.807422,
2011-11-05, 01:45:04,VALID,1001.78,VALID,0,VALID,89.6927,VALID,0,VALID,25.5142,VALID,37,VALID,0.652344,
2011-11-05, 01:46:04,VALID,1001.74,VALID,0,VALID,89.4944,VALID,0,VALID,25.5318,VALID,359,VALID,0.573438,
2011-11-05, 01:47:04,VALID,1001.78,VALID,0,VALID,89.4334,VALID,0,VALID,25.5727,VALID,12,VALID,0.497656,
2011-11-05, 01:48:04,VALID,1001.77,VALID,0,VALID,89.4791,VALID,0,VALID,25.5532,VALID,11,VALID,0.782031,
2011-11-05, 01:49:04,VALID,1001.75,VALID,0,VALID,89.4868,VALID,0,VALID,25.5337,VALID,12,VALID,0.685938,
2011-11-05, 01:50:04,VALID,1001.73,VALID,0,VALID,89.441,VALID,0,VALID,25.5532,VALID,29,VALID,0.573828,
2011-11-05, 01:51:04,VALID,1001.73,VALID,0,VALID,89.3494,VALID,0,VALID,25.5727,VALID,25,VALID,0.313672,
2011-11-05, 01:52:04,VALID,1001.7,VALID,0,VALID,89.3494,VALID,0,VALID,25.5513,VALID,18,VALID,0.505469,
2011-11-05, 01:53:04,VALID,1001.68,VALID,0,VALID,89.2808,VALID,0,VALID,25.5707,VALID,18,VALID,0.649609,
2011-11-05, 01:54:04,VALID,1001.7,VALID,0,VALID,89.2884,VALID,0,VALID,25.5707,VALID,2,VALID,1.05234,
2011-11-05, 01:55:04,VALID,1001.64,VALID,0,VALID,89.1969,VALID,0,VALID,25.6116,VALID,15,VALID,0.958984,
2011-11-05, 01:56:04,VALID,1001.66,VALID,0,VALID,89.1358,VALID,0,VALID,25.6311,VALID,15,VALID,0.495703,
2011-11-05, 01:57:04,VALID,1001.62,VALID,0,VALID,89.0443,VALID,0,VALID,25.6097,VALID,15,VALID,0.829297,
2011-11-05, 01:58:04,VALID,1001.61,VALID,0,VALID,89.029,VALID,0,VALID,25.67,VALID,21,VALID,0.823047,
2011-11-05, 01:59:04,VALID,1001.58,VALID,0,VALID,89.0214,VALID,0.0815089,VALID,25.6506,VALID,15,VALID,1.31953,
2011-11-05, 02:00:04,VALID,1001.55,VALID,0,VALID,88.7239,VALID,0,VALID,25.7071,VALID,1,VALID,0.825391,
2011-11-05, 02:01:04,VALID,1001.58,VALID,0,VALID,88.6094,VALID,0,VALID,25.748,VALID,7,VALID,0.361328,
2011-11-05, 02:02:04,VALID,1001.55,VALID,0,VALID,88.3577,VALID,0,VALID,25.748,VALID,353,VALID,0.64375,
2011-11-05, 02:03:04,VALID,1001.52,VALID,0,VALID,88.2738,VALID,0,VALID,25.7655,VALID,348,VALID,0.548828,
2011-11-05, 02:04:04,VALID,1001.54,VALID,0,VALID,88.4264,VALID,0,VALID,25.746,VALID,14,VALID,0.722656,
2011-11-05, 02:05:04,VALID,1001.5,VALID,0,VALID,88.3348,VALID,0,VALID,25.746,VALID,17,VALID,0.163672,
2011-11-05, 02:06:04,VALID,1001.51,VALID,0,VALID,88.4569,VALID,0,VALID,25.7265,VALID,17,VALID,0.217578,
2011-11-05, 02:07:04,VALID,1001.47,VALID,0,VALID,88.6018,VALID,0,VALID,25.6876,VALID,17,VALID,0.114453,
2011-11-05, 02:08:04,VALID,1001.45,VALID,0,VALID,88.7239,VALID,0,VALID,25.709,VALID,17,VALID,0.273828,
2011-11-05, 02:09:04,VALID,1001.44,VALID,0,VALID,88.8078,VALID,0,VALID,25.6895,VALID,18,VALID,0.642187,
2011-11-05, 02:10:04,VALID,1001.42,VALID,0,VALID,88.7239,VALID,0,VALID,25.67,VALID,1,VALID,0.580469,
2011-11-05, 02:11:04,VALID,1001.42,VALID,0,VALID,88.7925,VALID,0,VALID,25.6486,VALID,4,VALID,0.408203,
2011-11-05, 02:12:04,VALID,1001.39,VALID,0,VALID,88.9375,VALID,0,VALID,25.6486,VALID,351,VALID,0.66875,
2011-11-05, 02:13:04,VALID,1001.39,VALID,0,VALID,88.9299,VALID,0,VALID,25.6292,VALID,7,VALID,0.556641,
2011-11-05, 02:14:04,VALID,1001.36,VALID,0,VALID,89.113,VALID,0,VALID,25.5883,VALID,349,VALID,0.876562,
2011-11-05, 02:15:04,VALID,1001.35,VALID,0,VALID,88.9527,VALID,0,VALID,25.6292,VALID,16,VALID,0.673047,
2011-11-05, 02:16:04,VALID,1001.36,VALID,0,VALID,88.8688,VALID,0,VALID,25.6292,VALID,4,VALID,0.573438,
2011-11-05, 02:17:04,VALID,1001.34,VALID,0,VALID,88.8765,VALID,0,VALID,25.6292,VALID,3,VALID,0.691797,
2011-11-05, 02:18:04,VALID,1001.32,VALID,0,VALID,88.7697,VALID,0,VALID,25.6895,VALID,21,VALID,0.716016,
2011-11-05, 02:19:04,VALID,1001.36,VALID,0,VALID,88.495,VALID,0.0815089,VALID,25.746,VALID,11,VALID,0.667188,
2011-11-05, 02:20:04,VALID,1001.36,VALID,0,VALID,88.2585,VALID,0,VALID,25.746,VALID,11,VALID,0.137891,
2011-11-05, 02:21:04,VALID,1001.39,VALID,0,VALID,88.3119,VALID,0.0815089,VALID,25.7674,VALID,11,VALID,0.241797,
2011-11-05, 02:22:04,VALID,1001.41,VALID,0,VALID,88.3882,VALID,0.0815089,VALID,25.7265,VALID,11,VALID,0.0367187,
2011-11-05, 02:23:04,VALID,1001.42,VALID,0,VALID,88.5866,VALID,0,VALID,25.709,VALID,11,VALID,0.119141,
2011-11-05, 02:24:04,VALID,1001.42,VALID,0,VALID,88.6705,VALID,0,VALID,25.6486,VALID,11,VALID,0.309375,
2011-11-05, 02:25:04,VALID,1001.4,VALID,0,VALID,88.8917,VALID,0,VALID,25.6097,VALID,13,VALID,0.565625,
2011-11-05, 02:26:04,VALID,1001.39,VALID,0,VALID,89.0061,VALID,0,VALID,25.5921,VALID,13,VALID,0.366406,
2011-11-05, 02:27:04,VALID,1001.39,VALID,0,VALID,89.1358,VALID,0.0815089,VALID,25.5318,VALID,35,VALID,0.820703,
2011-11-05, 02:28:04,VALID,1001.36,VALID,0,VALID,89.1892,VALID,0,VALID,25.5707,VALID,20,VALID,0.696484,
2011-11-05, 02:29:04,VALID,1001.36,VALID,0,VALID,89.0519,VALID,0,VALID,25.5902,VALID,17,VALID,0.121875,
2011-11-05, 02:30:04,VALID,1001.33,VALID,0,VALID,89.0214,VALID,0,VALID,25.6116,VALID,13,VALID,0.545703,
2011-11-05, 02:31:04,VALID,1001.32,VALID,0,VALID,89.113,VALID,0,VALID,25.5727,VALID,17,VALID,0.260938,
2011-11-05, 02:32:04,VALID,1001.34,VALID,0,VALID,89.1664,VALID,0,VALID,25.5727,VALID,17,VALID,0.654297,
2011-11-05, 02:33:04,VALID,1001.33,VALID,0,VALID,89.2121,VALID,0.0815089,VALID,25.5318,VALID,17,VALID,0.571094,
2011-11-05, 02:34:04,VALID,1001.36,VALID,0,VALID,89.2808,VALID,0,VALID,25.4928,VALID,15,VALID,0.560938,
2011-11-05, 02:35:04,VALID,1001.35,VALID,0,VALID,89.4105,VALID,0,VALID,25.4539,VALID,10,VALID,0.759766,
2011-11-05, 02:36:04,VALID,1001.34,VALID,0,VALID,89.4028,VALID,0,VALID,25.4734,VALID,29,VALID,0.38125,
2011-11-05, 02:37:04,VALID,1001.36,VALID,0,VALID,89.3647,VALID,0,VALID,25.4928,VALID,29,VALID,0.320313,
2011-11-05, 02:38:04,VALID,1001.35,VALID,0,VALID,89.3723,VALID,0,VALID,25.4928,VALID,29,VALID,0.262891,
2011-11-05, 02:39:04,VALID,1001.38,VALID,0,VALID,89.3571,VALID,0,VALID,25.5142,VALID,29,VALID,0.273438,
2011-11-05, 02:40:04,VALID,1001.35,VALID,0,VALID,89.3952,VALID,0,VALID,25.4928,VALID,29,VALID,0.260156,
2011-11-05, 02:41:04,VALID,1001.4,VALID,0,VALID,89.38,VALID,0,VALID,25.5142,VALID,27,VALID,0.352344,
2011-11-05, 02:42:04,VALID,1001.37,VALID,0,VALID,89.174,VALID,0.0815089,VALID,25.5123,VALID,27,VALID,0.283984,
2011-11-05, 02:43:04,VALID,1001.39,VALID,0,VALID,89.1358,VALID,0,VALID,25.4928,VALID,27,VALID,0.54375,
2011-11-05, 02:44:04,VALID,1001.37,VALID,0,VALID,89.3494,VALID,0,VALID,25.4734,VALID,16,VALID,0.780078,
2011-11-05, 02:45:04,VALID,1001.31,VALID,0,VALID,89.2274,VALID,0,VALID,25.5123,VALID,17,VALID,1.57148,
2011-11-05, 02:46:04,VALID,1001.31,VALID,0,VALID,88.7468,VALID,0,VALID,25.6097,VALID,21,VALID,0.841797,
2011-11-05, 02:47:04,VALID,1001.29,VALID,0,VALID,88.6628,VALID,0,VALID,25.6097,VALID,3,VALID,0.435547,
2011-11-05, 02:48:04,VALID,1001.27,VALID,0,VALID,88.6171,VALID,0,VALID,25.6506,VALID,26,VALID,0.555469,
2011-11-05, 02:49:04,VALID,1001.27,VALID,0,VALID,88.6781,VALID,0,VALID,25.6486,VALID,71,VALID,0.514844,
2011-11-05, 02:50:04,VALID,1001.29,VALID,0,VALID,88.5332,VALID,0,VALID,25.709,VALID,23,VALID,0.367578,
2011-11-05, 02:51:04,VALID,1001.29,VALID,0,VALID,88.2814,VALID,0,VALID,25.7285,VALID,18,VALID,0.346094,
2011-11-05, 02:52:04,VALID,1001.31,VALID,0,VALID,88.1899,VALID,0,VALID,25.7265,VALID,10,VALID,0.381641,
2011-11-05, 02:53:04,VALID,1001.31,VALID,0,VALID,88.1517,VALID,0,VALID,25.7265,VALID,18,VALID,0.214453,
2011-11-05, 02:54:04,VALID,1001.32,VALID,0,VALID,88.1136,VALID,0.0815089,VALID,25.7071,VALID,18,VALID,0.0375,
2011-11-05, 02:55:04,VALID,1001.29,VALID,0,VALID,88.2051,VALID,0,VALID,25.7265,VALID,50,VALID,0.381641,
2011-11-05, 02:56:04,VALID,1001.31,VALID,0,VALID,88.1593,VALID,0.0815089,VALID,25.7265,VALID,50,VALID,0.34375,
2011-11-05, 02:57:04,VALID,1001.32,VALID,0,VALID,88.2051,VALID,0,VALID,25.6681,VALID,50,VALID,0.21875,
2011-11-05, 02:58:04,VALID,1001.33,VALID,0,VALID,88.3958,VALID,0.0815089,VALID,25.67,VALID,50,VALID,0.311328,
2011-11-05, 02:59:04,VALID,1001.33,VALID,0,VALID,88.6628,VALID,0,VALID,25.6506,VALID,56,VALID,0.933984,
2011-11-05, 03:00:04,VALID,1001.31,VALID,0,VALID,88.701,VALID,0,VALID,25.5902,VALID,41,VALID,0.380078,
2011-11-05, 03:01:04,VALID,1001.3,VALID,0,VALID,88.701,VALID,0,VALID,25.5707,VALID,41,VALID,0.25,
2011-11-05, 03:02:04,VALID,1001.26,VALID,0,VALID,88.9909,VALID,0,VALID,25.5318,VALID,40,VALID,0.455469,
2011-11-05, 03:03:04,VALID,1001.26,VALID,0,VALID,89.1664,VALID,0,VALID,25.5318,VALID,38,VALID,0.582422,
2011-11-05, 03:04:04,VALID,1001.23,VALID,0,VALID,89.2808,VALID,0,VALID,25.5318,VALID,16,VALID,0.450781,
2011-11-05, 03:05:04,VALID,1001.21,VALID,0,VALID,89.296,VALID,0.0815089,VALID,25.5123,VALID,16,VALID,0.456641,
2011-11-05, 03:06:04,VALID,1001.2,VALID,0,VALID,89.2121,VALID,0,VALID,25.5318,VALID,47,VALID,0.484375,
2011-11-05, 03:07:04,VALID,1001.21,VALID,0,VALID,89.0595,VALID,0,VALID,25.5921,VALID,87,VALID,0.412891,
2011-11-05, 03:08:04,VALID,1001.22,VALID,0,VALID,88.8917,VALID,0.0815089,VALID,25.5902,VALID,38,VALID,0.629687,
2011-11-05, 03:09:04,VALID,1001.21,VALID,0,VALID,88.8383,VALID,0,VALID,25.5902,VALID,32,VALID,0.183203,
2011-11-05, 03:10:04,VALID,1001.21,VALID,0,VALID,88.8459,VALID,0.0815089,VALID,25.6116,VALID,32,VALID,0.399219,
2011-11-05, 03:11:04,VALID,1001.24,VALID,0,VALID,88.8231,VALID,0,VALID,25.5902,VALID,32,VALID,0.189063,
2011-11-05, 03:12:04,VALID,1001.23,VALID,0,VALID,88.8688,VALID,0,VALID,25.5707,VALID,32,VALID,0,
2011-11-05, 03:13:04,VALID,1001.24,VALID,0,VALID,89.0138,VALID,0,VALID,25.5337,VALID,32,VALID,0.528516,
2011-11-05, 03:14:04,VALID,1001.26,VALID,0,VALID,89.2198,VALID,0,VALID,25.5318,VALID,26,VALID,0.802734,
2011-11-05, 03:15:04,VALID,1001.22,VALID,0,VALID,89.1053,VALID,0,VALID,25.5727,VALID,23,VALID,0.641797,
2011-11-05, 03:16:04,VALID,1001.22,VALID,0,VALID,88.968,VALID,0,VALID,25.5707,VALID,24,VALID,0.369141,
2011-11-05, 03:17:04,VALID,1001.22,VALID,0,VALID,88.9527,VALID,0,VALID,25.5727,VALID,24,VALID,0.0105469,
2011-11-05, 03:18:04,VALID,1001.24,VALID,0,VALID,89.0443,VALID,0,VALID,25.5513,VALID,80,VALID,0.485547,
2011-11-05, 03:19:04,VALID,1001.22,VALID,0,VALID,88.968,VALID,0,VALID,25.5707,VALID,81,VALID,0.233594,
2011-11-05, 03:20:04,VALID,1001.23,VALID,0,VALID,88.9909,VALID,0,VALID,25.5707,VALID,82,VALID,0.550781,
2011-11-05, 03:21:04,VALID,1001.25,VALID,0,VALID,88.8688,VALID,0,VALID,25.6506,VALID,81,VALID,0.504687,
2011-11-05, 03:22:04,VALID,1001.25,VALID,0,VALID,88.6323,VALID,0,VALID,25.6486,VALID,81,VALID,0.282422,
2011-11-05, 03:23:04,VALID,1001.31,VALID,0,VALID,88.5713,VALID,0,VALID,25.6486,VALID,103,VALID,0.667578,
2011-11-05, 03:24:04,VALID,1001.31,VALID,0,VALID,88.5789,VALID,0,VALID,25.6876,VALID,87,VALID,0.615625,
2011-11-05, 03:25:04,VALID,1001.34,VALID,0,VALID,88.4721,VALID,0,VALID,25.6876,VALID,78,VALID,0.838672,
2011-11-05, 03:26:04,VALID,1001.37,VALID,0,VALID,88.3195,VALID,0,VALID,25.7071,VALID,64,VALID,0.351172,
2011-11-05, 03:27:04,VALID,1001.38,VALID,0,VALID,88.2738,VALID,0,VALID,25.7071,VALID,79,VALID,0.514063,
2011-11-05, 03:28:04,VALID,1001.41,VALID,0,VALID,88.2585,VALID,0,VALID,25.7071,VALID,34,VALID,0.575391,
2011-11-05, 03:29:04,VALID,1001.43,VALID,0,VALID,88.1136,VALID,0,VALID,25.7265,VALID,79,VALID,0.790234,
2011-11-05, 03:30:04,VALID,1001.47,VALID,0,VALID,87.9915,VALID,0,VALID,25.7655,VALID,71,VALID,0.379687,
2011-11-05, 03:31:04,VALID,1001.46,VALID,0,VALID,87.9228,VALID,0.0815089,VALID,25.744,VALID,71,VALID,0.0640625,
2011-11-05, 03:32:04,VALID,1001.47,VALID,0,VALID,87.961,VALID,0,VALID,25.746,VALID,71,VALID,0.270312,
2011-11-05, 03:33:04,VALID,1001.52,VALID,0,VALID,88.0296,VALID,0,VALID,25.748,VALID,71,VALID,0.172656,
2011-11-05, 03:34:04,VALID,1001.55,VALID,0,VALID,88.1593,VALID,0,VALID,25.7071,VALID,71,VALID,0.213281,
2011-11-05, 03:35:04,VALID,1001.58,VALID,0,VALID,88.3043,VALID,0,VALID,25.6895,VALID,14,VALID,0.585156,
2011-11-05, 03:36:04,VALID,1001.61,VALID,0,VALID,88.3729,VALID,0,VALID,25.6681,VALID,61,VALID,0.754297,
2011-11-05, 03:37:04,VALID,1001.64,VALID,0,VALID,88.3195,VALID,0.0815089,VALID,25.6876,VALID,79,VALID,0.382813,
2011-11-05, 03:38:04,VALID,1001.66,VALID,0,VALID,88.228,VALID,0,VALID,25.6876,VALID,79,VALID,0.108984,
2011-11-05, 03:39:04,VALID,1001.7,VALID,0,VALID,88.2433,VALID,0.0815089,VALID,25.6662,VALID,79,VALID,0.00195313,
2011-11-05, 03:40:04,VALID,1001.68,VALID,0,VALID,88.2661,VALID,0.0815089,VALID,25.6681,VALID,74,VALID,0.198047,
2011-11-05, 03:41:04,VALID,1001.69,VALID,0,VALID,88.3424,VALID,0,VALID,25.6506,VALID,73,VALID,0.164453,
2011-11-05, 03:42:04,VALID,1001.67,VALID,0,VALID,88.4416,VALID,0,VALID,25.6292,VALID,55,VALID,0.565234,
2011-11-05, 03:43:04,VALID,1001.66,VALID,0,VALID,88.4721,VALID,0,VALID,25.6292,VALID,31,VALID,0.378125,
2011-11-05, 03:44:04,VALID,1001.68,VALID,0,VALID,88.6094,VALID,0,VALID,25.6097,VALID,31,VALID,0.355469,
2011-11-05, 03:45:04,VALID,1001.69,VALID,0,VALID,88.701,VALID,0,VALID,25.5707,VALID,55,VALID,0.425781,